Regional Weather Roundup
Issued by NWS

Current Version | Previous Version | Text Only | Print | Product List | Glossary On
Versions: 1 2 3 4 5 6 7 8 9 10 11 12 13 14 15 16 17 18 19 20 21 22 23 24 25 26 27 28 29 30 31 32 33 34 35 36 37 38 39 40 41 42 43 44 45 46 47 48 49 50
000
ASUS44 KLIX 311112
RWRLA
LOUISIANA WEATHER ROUNDUP
NATIONAL WEATHER SERVICE NEW ORLEANS LA
600 AM CDT FRI JUL 31 2015

NOTE: "FAIR" INDICATES FEW OR NO CLOUDS BELOW 12,000 FEET WITH NO
      SIGNIFICANT WEATHER AND/OR OBSTRUCTIONS TO VISIBILITY.
      SKY/WX - SKY CONDITION AND SIGNIFICANT WEATHER.
      TMP - AIR TEMPERATURE.    DP   - DEWPOINT TEMPERATURE.
      RH  - RELATIVE HUMIDITY.  PRES - PRESSURE.
      HX  - HEAT INDEX.         WCI  - WIND CHILL INDEX.

*  THESE STATIONS ARE NOT NWS OR FAA STATIONS AND ARE NOT UNDER
   NWS QUALITY CONTROL.

LAZ040-048-061>063-065-066-069-311200-
SOUTHEAST LOUISIANA

CITY           SKY/WX    TMP DP  RH WIND       PRES   REMARKS
N.O. AUDUBON     N/A     82  76  83 MISG        N/A
N.O. INTL ARPT MOCLDY    81  73  76 NE9       29.94R
N.O. LAKEFRONT PTCLDY    81  73  76 NE16      29.95R
N.O. DOWNTOWN* FAIR      81  73  78 N6        29.95R
RESERVE*         N/A     77  74  91 CALM      29.96R
SLIDELL        PTCLDY    75  75 100 N6        29.94R
BATON ROUGE    CLEAR     76  73  91 NE3       29.97R
BOOTHVILLE     MOCLDY    83  75  77 N9        29.92S
BELLE CHASSE   MOCLDY    79  75  87 N3        29.94R
BOGALUSA*        N/A     75  71  86 N7        29.96S
GALLIANO*      NOT AVBL
NEW ROADS*     FAIR     N/A N/A N/A N6        29.98R
GONZALES*      FAIR      76  76 100 N5        29.95S
HAMMOND*       CLEAR     73  72  94 N5        29.97R
HOUMA*         MOCLDY    76  74  94 NW5       29.95R
PORT FOURCHON* CLOUDY    81  75  83 N8        29.94S

$$

LAZ041-044-053-054-311200-
SOUTHWEST LOUISIANA

CITY           SKY/WX    TMP DP  RH WIND       PRES   REMARKS
LAKE CHARLES   PTCLDY    78  74  87 N8        29.99R
LAFAYETTE      PTCLDY    78  74  87 N10       29.97S
PATTERSON      MOCLDY    77  73  88 N6        29.97R
SALT POINT       N/A     77  75  93 N3        29.95R
NEW IBERIA     MOCLDY    77  74  90 N7        29.97S
CHENAULT AIRPK CLEAR     75  73  94 N8        30.00R

$$

LAZ027-028-311200-
CENTRAL LOUISIANA

CITY           SKY/WX    TMP DP  RH WIND       PRES   REMARKS
FORT POLK      CLEAR     76  71  83 N7        30.01R
ALEXANDRIA INT MOCLDY    74  70  87 N5        30.00R
ALEXANDRIA     PTCLDY    76  70  82 CALM      30.01R

$$

LAZ001-002-311200-
NORTHWEST LOUISIANA

CITY           SKY/WX    TMP DP  RH WIND       PRES   REMARKS
SHREVEPORT     MOCLDY    77  67  71 NE8       30.05S
BARKSDALE AFB  CLOUDY    72  67  83 N5        30.05S
DTN SHREVEPORT MOCLDY    75  65  70 N6        30.06R

$$

LAZ014-016-311200-
NORTHEAST LOUISIANA

CITY           SKY/WX    TMP DP  RH WIND       PRES   REMARKS
MONROE         CLEAR     70  66  87 NE3       30.04R
TALLULAH       CLEAR     75  66  73 NE10      30.02R

$$




USA.gov is the U.S. government's official web portal to all federal, state and local government web resources and services.